QFA546 YSSY-YBBN

Flight info

Callsign QFA546
Flight time 1h 13m
Altitude 35000
Route TESAT H252 OLSEM Y193 BANDA H252 BN
Aircraft B738/M-SDE2E3FGHIRWXY/LB1

Departure

Time 2026-05-01 08:47
Airport Sydney Kingsford Smith International Airport (YSSY)

Arrival

Time 2026-05-01 10:00
Airport Brisbane International Airport (YBBN)
Time Latitude Longitude Altitude Speed Heading
2026-05-01 08:03 -33.93146 151.17859 28 ft 0 kts 191°
2026-05-01 08:28 -33.93141 151.17859 28 ft 2 kts 191°
2026-05-01 08:28 -33.93125 151.17864 28 ft 2 kts 191°
2026-05-01 08:28 -33.93110 151.17866 28 ft 2 kts 191°
2026-05-01 08:29 -33.93096 151.17874 28 ft 2 kts 219°
2026-05-01 08:29 -33.93086 151.17888 28 ft 2 kts 240°
2026-05-01 08:29 -33.93080 151.17903 28 ft 2 kts 261°
2026-05-01 08:29 -33.93080 151.17918 28 ft 0 kts 278°
2026-05-01 08:30 -33.93081 151.17926 28 ft 0 kts 281°
2026-05-01 08:35 -33.93069 151.17848 28 ft 16 kts 281°
2026-05-01 08:35 -33.93043 151.17731 28 ft 12 kts 297°
2026-05-01 08:35 -33.93016 151.17641 28 ft 11 kts 281°
2026-05-01 08:35 -33.93052 151.17535 28 ft 17 kts 208°
2026-05-01 08:36 -33.93171 151.17539 28 ft 18 kts 168°
2026-05-01 08:36 -33.93289 151.17570 28 ft 16 kts 167°
2026-05-01 08:36 -33.93404 151.17595 28 ft 17 kts 177°
2026-05-01 08:36 -33.93526 151.17595 28 ft 17 kts 168°
2026-05-01 08:37 -33.93641 151.17635 28 ft 17 kts 155°
2026-05-01 08:37 -33.93717 151.17677 28 ft 8 kts 162°
2026-05-01 08:37 -33.93769 151.17691 28 ft 9 kts 169°
2026-05-01 08:37 -33.93843 151.17732 28 ft 14 kts 125°
2026-05-01 08:38 -33.93948 151.17792 28 ft 19 kts 169°
2026-05-01 08:38 -33.94103 151.17833 28 ft 25 kts 168°
2026-05-01 08:38 -33.94284 151.17879 28 ft 26 kts 168°
2026-05-01 08:38 -33.94451 151.17906 28 ft 22 kts 200°
2026-05-01 08:39 -33.94586 151.17899 28 ft 18 kts 169°
2026-05-01 08:39 -33.94701 151.17928 28 ft 15 kts 167°
2026-05-01 08:39 -33.94796 151.17953 28 ft 14 kts 167°
2026-05-01 08:39 -33.94922 151.17984 28 ft 22 kts 168°
2026-05-01 08:40 -33.95078 151.18227 28 ft 19 kts 78°
2026-05-01 08:40 -33.95050 151.18375 28 ft 16 kts 78°
2026-05-01 08:40 -33.95047 151.18390 28 ft 0 kts 78°
2026-05-01 08:41 -33.95043 151.18416 28 ft 11 kts 78°
2026-05-01 08:41 -33.95105 151.18536 28 ft 22 kts 139°
2026-05-01 08:41 -33.95213 151.18652 28 ft 19 kts 137°
2026-05-01 08:42 -33.95321 151.18720 28 ft 17 kts 161°
2026-05-01 08:42 -33.95478 151.18761 28 ft 29 kts 169°
2026-05-01 08:42 -33.95684 151.18817 28 ft 28 kts 168°
2026-05-01 08:42 -33.95869 151.18864 28 ft 25 kts 167°
2026-05-01 08:43 -33.96030 151.18909 28 ft 22 kts 168°
2026-05-01 08:43 -33.96170 151.18944 28 ft 19 kts 168°
2026-05-01 08:43 -33.96296 151.18977 28 ft 17 kts 168°
2026-05-01 08:43 -33.96435 151.19011 28 ft 24 kts 170°
2026-05-01 08:44 -33.96625 151.19060 28 ft 31 kts 166°
2026-05-01 08:44 -33.96830 151.19070 28 ft 27 kts 171°
2026-05-01 08:44 -33.97008 151.19116 28 ft 24 kts 168°
2026-05-01 08:44 -33.97117 151.19170 28 ft 14 kts 118°
2026-05-01 08:45 -33.97115 151.19258 28 ft 0 kts 76°
2026-05-01 08:45 -33.97113 151.19267 28 ft 5 kts 78°
2026-05-01 08:46 -33.97098 151.19350 28 ft 10 kts 73°
2026-05-01 08:46 -33.97025 151.19365 28 ft 16 kts 348°
2026-05-01 08:46 -33.96661 151.19272 28 ft 95 kts 348°
2026-05-01 08:46 -33.95766 151.19038 30 ft 166 kts 348°
2026-05-01 08:47 -33.94546 151.18669 499 ft 193 kts 348°
2026-05-01 08:47 -33.93145 151.18208 1224 ft 210 kts 353°
2026-05-01 08:47 -33.91785 151.18291 2013 ft 207 kts 27°
2026-05-01 08:47 -33.90712 151.19459 2645 ft 219 kts 58°
2026-05-01 08:48 -33.89903 151.21097 3221 ft 238 kts 56°
2026-05-01 08:48 -33.88799 151.22664 3932 ft 250 kts 43°
2026-05-01 08:48 -33.87458 151.23987 4662 ft 258 kts 37°
2026-05-01 08:48 -33.85995 151.25256 4973 ft 258 kts 35°
2026-05-01 08:49 -33.84497 151.26517 5542 ft 257 kts 36°
2026-05-01 08:49 -33.83230 151.27982 6003 ft 251 kts 57°
2026-05-01 08:49 -33.82572 151.29990 6420 ft 263 kts 74°
2026-05-01 08:49 -33.82148 151.32118 6932 ft 265 kts 74°
2026-05-01 08:50 -33.81685 151.34273 7415 ft 267 kts 73°
2026-05-01 08:50 -33.81078 151.36375 7872 ft 268 kts 62°
2026-05-01 08:50 -33.80056 151.38235 8318 ft 269 kts 50°
2026-05-01 08:50 -33.78816 151.39955 8745 ft 272 kts 47°
2026-05-01 08:51 -33.77567 151.41638 9165 ft 275 kts 48°
2026-05-01 08:51 -33.76305 151.43407 9565 ft 279 kts 50°
2026-05-01 08:51 -33.75075 151.45193 9987 ft 281 kts 50°
2026-05-01 08:51 -33.73823 151.47047 10214 ft 290 kts 51°
2026-05-01 08:52 -33.72542 151.48947 10328 ft 302 kts 50°
2026-05-01 08:52 -33.70895 151.50664 10534 ft 323 kts 28°
2026-05-01 08:52 -33.68787 151.51628 11229 ft 330 kts 17°
2026-05-01 08:52 -33.66554 151.52313 11946 ft 336 kts 15°
2026-05-01 08:53 -33.64265 151.52991 12709 ft 341 kts 15°
2026-05-01 08:53 -33.61955 151.53740 13407 ft 346 kts 17°
2026-05-01 08:53 -33.59639 151.54559 14145 ft 350 kts 18°
2026-05-01 08:53 -33.57312 151.55425 14876 ft 354 kts 19°
2026-05-01 08:54 -33.54958 151.56319 15566 ft 359 kts 19°
2026-05-01 08:54 -33.52561 151.57236 16296 ft 362 kts 19°
2026-05-01 08:54 -33.50154 151.58156 16941 ft 366 kts 19°
2026-05-01 08:54 -33.47745 151.59073 17595 ft 370 kts 19°
2026-05-01 08:55 -33.45289 151.60005 18244 ft 373 kts 19°
2026-05-01 08:55 -33.42799 151.60948 18892 ft 377 kts 19°
2026-05-01 08:55 -33.40269 151.61905 19518 ft 380 kts 19°
2026-05-01 08:55 -33.37775 151.62846 20164 ft 383 kts 19°
2026-05-01 08:56 -33.35205 151.63815 20800 ft 386 kts 18°
2026-05-01 08:56 -33.32662 151.64774 21379 ft 389 kts 18°
2026-05-01 08:56 -33.30065 151.65752 21982 ft 391 kts 18°
2026-05-01 08:56 -33.27463 151.66730 22523 ft 395 kts 18°
2026-05-01 08:57 -33.26295 151.67168 22807 ft 395 kts 18°
2026-05-01 08:57 -33.24473 151.67853 23161 ft 398 kts 18°
2026-05-01 08:57 -33.21798 151.68855 23699 ft 401 kts 18°
2026-05-01 08:57 -33.19114 151.69861 24177 ft 406 kts 18°
2026-05-01 08:58 -33.16428 151.70868 24677 ft 409 kts 18°
2026-05-01 08:58 -33.13718 151.71884 25126 ft 413 kts 18°
2026-05-01 08:58 -33.10938 151.72929 25600 ft 417 kts 18°
2026-05-01 08:58 -33.08178 151.73967 26124 ft 419 kts 18°
2026-05-01 08:59 -33.05375 151.75018 26564 ft 422 kts 18°
2026-05-01 08:59 -33.02592 151.76060 27048 ft 425 kts 18°
2026-05-01 08:59 -32.99745 151.77125 27483 ft 428 kts 18°
2026-05-01 08:59 -32.96919 151.78183 27950 ft 430 kts 18°
2026-05-01 09:00 -32.94060 151.79253 28352 ft 433 kts 18°
2026-05-01 09:00 -32.91148 151.80342 28813 ft 435 kts 18°
2026-05-01 09:00 -32.88270 151.81418 29186 ft 438 kts 18°
2026-05-01 09:00 -32.85326 151.82516 29589 ft 441 kts 18°
2026-05-01 09:01 -32.82388 151.83612 30065 ft 442 kts 18°
2026-05-01 09:01 -32.79458 151.84703 30579 ft 441 kts 18°
2026-05-01 09:01 -32.76487 151.85809 30988 ft 443 kts 18°
2026-05-01 09:01 -32.73563 151.86896 31424 ft 443 kts 17°
2026-05-01 09:02 -32.70626 151.87988 31848 ft 444 kts 17°
2026-05-01 09:02 -32.67679 151.89082 32291 ft 443 kts 17°
2026-05-01 09:02 -32.64751 151.90170 32720 ft 443 kts 17°
2026-05-01 09:02 -32.61786 151.91270 33079 ft 444 kts 17°
2026-05-01 09:03 -32.58842 151.92362 33414 ft 445 kts 17°
2026-05-01 09:03 -32.55875 151.93460 33779 ft 445 kts 16°
2026-05-01 09:03 -32.52945 151.94545 34080 ft 446 kts 16°
2026-05-01 09:03 -32.49971 151.95645 34350 ft 446 kts 16°
2026-05-01 09:04 -32.47019 151.96736 34613 ft 447 kts 16°
2026-05-01 09:04 -32.44027 151.97841 34892 ft 447 kts 16°
2026-05-01 09:04 -32.41087 151.98927 35165 ft 447 kts 16°
2026-05-01 09:04 -32.38118 152.00023 35331 ft 449 kts 16°
2026-05-01 09:05 -32.32132 152.02228 35346 ft 448 kts 16°
2026-05-01 09:05 -32.26211 152.04407 35342 ft 448 kts 16°
2026-05-01 09:06 -32.20213 152.06613 35345 ft 449 kts 15°
2026-05-01 09:06 -32.14245 152.08806 35341 ft 448 kts 16°
2026-05-01 09:07 -32.08285 152.10989 35344 ft 449 kts 16°
2026-05-01 09:07 -32.02369 152.13153 35337 ft 448 kts 16°
2026-05-01 09:08 -31.96384 152.15341 35338 ft 450 kts 16°
2026-05-01 09:08 -31.90410 152.17523 35335 ft 450 kts 16°
2026-05-01 09:09 -31.84422 152.19707 35331 ft 449 kts 16°
2026-05-01 09:09 -31.78434 152.21886 35327 ft 449 kts 16°
2026-05-01 09:10 -31.72446 152.24060 35337 ft 451 kts 16°
2026-05-01 09:10 -31.66484 152.26224 35352 ft 450 kts 16°
2026-05-01 09:11 -31.62370 152.27716 35354 ft 451 kts 16°
2026-05-01 09:11 -31.56641 152.29791 35348 ft 451 kts 16°
2026-05-01 09:12 -31.50619 152.31969 35339 ft 451 kts 16°
2026-05-01 09:12 -31.44623 152.34134 35339 ft 452 kts 15°
2026-05-01 09:13 -31.38603 152.36305 35342 ft 452 kts 15°
2026-05-01 09:13 -31.32584 152.38474 35341 ft 452 kts 15°
2026-05-01 09:14 -31.26575 152.40636 35341 ft 452 kts 15°
2026-05-01 09:14 -31.20573 152.42792 35340 ft 452 kts 15°
2026-05-01 09:15 -31.14536 152.44959 35339 ft 454 kts 15°
2026-05-01 09:15 -31.08502 152.47122 35327 ft 452 kts 15°
2026-05-01 09:16 -31.02475 152.49278 35331 ft 454 kts 15°
2026-05-01 09:17 -30.93398 152.52521 35331 ft 454 kts 15°
2026-05-01 09:17 -30.84352 152.55745 35333 ft 455 kts 15°
2026-05-01 09:18 -30.75255 152.59000 35330 ft 454 kts 16°
2026-05-01 09:19 -30.66194 152.62293 35326 ft 456 kts 16°
2026-05-01 09:20 -30.57139 152.65581 35328 ft 455 kts 15°
2026-05-01 09:21 -30.45002 152.69972 35321 ft 457 kts 15°
2026-05-01 09:21 -30.35935 152.73242 35322 ft 457 kts 15°
2026-05-01 09:22 -30.23771 152.77618 35316 ft 455 kts 15°
2026-05-01 09:23 -30.14690 152.80876 35311 ft 456 kts 15°
2026-05-01 09:24 -30.05623 152.84126 35317 ft 457 kts 15°
2026-05-01 09:25 -29.93440 152.88483 35313 ft 458 kts 15°
2026-05-01 09:26 -29.84331 152.91733 35317 ft 457 kts 15°
2026-05-01 09:26 -29.75186 152.94987 35300 ft 458 kts 15°
2026-05-01 09:27 -29.66066 152.98227 35303 ft 457 kts 15°
2026-05-01 09:28 -29.59990 153.00382 35301 ft 458 kts 15°
2026-05-01 09:28 -29.53927 153.02527 35293 ft 456 kts 15°
2026-05-01 09:29 -29.44790 153.05757 35272 ft 457 kts 15°
2026-05-01 09:30 -29.35651 153.08984 35283 ft 458 kts 15°
2026-05-01 09:30 -29.26522 153.12203 35549 ft 458 kts 15°
2026-05-01 09:31 -29.20419 153.14351 35112 ft 455 kts 15°
2026-05-01 09:31 -29.14372 153.16475 35279 ft 457 kts 15°
2026-05-01 09:32 -29.11332 153.17543 35275 ft 453 kts 14°
2026-05-01 09:32 -29.02257 153.20726 35268 ft 456 kts 15°
2026-05-01 09:33 -28.96202 153.22849 35273 ft 455 kts 15°
2026-05-01 09:33 -28.90177 153.24957 35010 ft 449 kts 14°
2026-05-01 09:34 -28.87202 153.26000 34746 ft 442 kts 15°
2026-05-01 09:34 -28.84305 153.27011 34342 ft 438 kts 15°
2026-05-01 09:34 -28.78462 153.29050 33315 ft 437 kts 15°
2026-05-01 09:35 -28.75591 153.30049 32790 ft 436 kts 15°
2026-05-01 09:35 -28.69775 153.32074 31732 ft 434 kts 15°
2026-05-01 09:35 -28.66922 153.33067 31212 ft 433 kts 15°
2026-05-01 09:36 -28.64050 153.34067 30685 ft 431 kts 15°
2026-05-01 09:36 -28.61171 153.35068 30162 ft 430 kts 15°
2026-05-01 09:36 -28.58297 153.36067 29628 ft 429 kts 15°
2026-05-01 09:36 -28.55477 153.37047 29086 ft 427 kts 16°
2026-05-01 09:37 -28.52628 153.38036 28554 ft 424 kts 16°
2026-05-01 09:37 -28.46997 153.39989 27515 ft 419 kts 16°
2026-05-01 09:37 -28.44183 153.40964 26990 ft 417 kts 16°
2026-05-01 09:38 -28.38682 153.42868 25971 ft 411 kts 17°
2026-05-01 09:38 -28.35923 153.43822 25460 ft 409 kts 17°
2026-05-01 09:38 -28.33233 153.44751 24958 ft 406 kts 17°
2026-05-01 09:39 -28.27870 153.46605 23961 ft 400 kts 17°
2026-05-01 09:39 -28.25215 153.47520 23467 ft 397 kts 17°
2026-05-01 09:39 -28.22576 153.48431 22977 ft 394 kts 18°
2026-05-01 09:40 -28.19984 153.49309 22491 ft 391 kts 16°
2026-05-01 09:40 -28.14636 153.50041 21533 ft 384 kts 355°
2026-05-01 09:40 -28.12012 153.49652 21064 ft 380 kts 351°
2026-05-01 09:41 -28.09429 153.49114 20589 ft 377 kts 349°
2026-05-01 09:41 -28.04312 153.47934 19654 ft 371 kts 348°
2026-05-01 09:41 -28.01786 153.47360 19188 ft 368 kts 349°
2026-05-01 09:42 -27.99291 153.46809 18732 ft 365 kts 349°
2026-05-01 09:42 -27.96832 153.46275 18281 ft 361 kts 349°
2026-05-01 09:42 -27.91902 153.45236 17385 ft 355 kts 350°
2026-05-01 09:43 -27.87085 153.44240 16494 ft 349 kts 351°
2026-05-01 09:43 -27.84724 153.43753 16067 ft 346 kts 351°
2026-05-01 09:43 -27.82354 153.43263 15619 ft 343 kts 351°
2026-05-01 09:44 -27.77683 153.42299 14751 ft 337 kts 352°
2026-05-01 09:44 -27.75385 153.41824 14326 ft 334 kts 352°
2026-05-01 09:44 -27.73118 153.41357 13912 ft 331 kts 352°
2026-05-01 09:45 -27.70856 153.40892 13495 ft 328 kts 352°
2026-05-01 09:45 -27.66404 153.39975 12678 ft 322 kts 353°
2026-05-01 09:45 -27.64217 153.39560 12283 ft 318 kts 357°
2026-05-01 09:46 -27.62060 153.39435 12206 ft 302 kts
2026-05-01 09:46 -27.59948 153.39510 12212 ft 302 kts
2026-05-01 09:46 -27.57868 153.39647 12201 ft 302 kts
2026-05-01 09:46 -27.55754 153.39787 12209 ft 302 kts
2026-05-01 09:47 -27.53648 153.39909 12058 ft 299 kts
2026-05-01 09:47 -27.51577 153.40012 11732 ft 295 kts
2026-05-01 09:47 -27.49552 153.40105 11368 ft 294 kts
2026-05-01 09:47 -27.47499 153.40196 10992 ft 292 kts
2026-05-01 09:48 -27.45475 153.40288 10622 ft 290 kts
2026-05-01 09:48 -27.43468 153.40379 10255 ft 289 kts
2026-05-01 09:48 -27.41470 153.40468 10031 ft 282 kts
2026-05-01 09:48 -27.39515 153.40558 9649 ft 281 kts
2026-05-01 09:49 -27.37541 153.40649 9297 ft 280 kts
2026-05-01 09:49 -27.35614 153.40738 9024 ft 280 kts
2026-05-01 09:49 -27.33679 153.40828 8960 ft 275 kts
2026-05-01 09:49 -27.31775 153.40913 8795 ft 269 kts
2026-05-01 09:50 -27.29905 153.40997 8490 ft 267 kts
2026-05-01 09:50 -27.28024 153.41107 8162 ft 277 kts
2026-05-01 09:50 -27.26072 153.41226 7782 ft 285 kts
2026-05-01 09:50 -27.24092 153.41301 7448 ft 283 kts
2026-05-01 09:51 -27.22116 153.41368 7085 ft 281 kts
2026-05-01 09:51 -27.20148 153.41295 6720 ft 284 kts 356°
2026-05-01 09:51 -27.18293 153.40585 6399 ft 286 kts 333°
2026-05-01 09:51 -27.16717 153.39224 6039 ft 282 kts 321°
2026-05-01 09:52 -27.15299 153.37727 5661 ft 276 kts 319°
2026-05-01 09:52 -27.14061 153.36133 5469 ft 265 kts 306°
2026-05-01 09:52 -27.13261 153.34360 5365 ft 252 kts 287°
2026-05-01 09:52 -27.13202 153.32486 5275 ft 233 kts 252°
2026-05-01 09:53 -27.13808 153.30902 5213 ft 211 kts 237°
2026-05-01 09:53 -27.14428 153.29527 5176 ft 182 kts 238°
2026-05-01 09:53 -27.14947 153.28282 5093 ft 173 kts 239°
2026-05-01 09:53 -27.15477 153.27033 5060 ft 180 kts 238°
2026-05-01 09:54 -27.16071 153.25810 4990 ft 174 kts 226°
2026-05-01 09:54 -27.16966 153.25009 4768 ft 162 kts 196°
2026-05-01 09:54 -27.17994 153.24518 4353 ft 159 kts 194°
2026-05-01 09:54 -27.18969 153.23993 4030 ft 153 kts 197°
2026-05-01 09:55 -27.19914 153.23427 3862 ft 153 kts 199°
2026-05-01 09:55 -27.20868 153.22850 3706 ft 156 kts 198°
2026-05-01 09:55 -27.21831 153.22296 3428 ft 153 kts 198°
2026-05-01 09:55 -27.22770 153.21759 3241 ft 151 kts 197°
2026-05-01 09:56 -27.23720 153.21220 3023 ft 152 kts 197°
2026-05-01 09:56 -27.24658 153.20689 2819 ft 151 kts 198°
2026-05-01 09:56 -27.25595 153.20158 2603 ft 150 kts 198°
2026-05-01 09:56 -27.26514 153.19636 2402 ft 148 kts 197°
2026-05-01 09:57 -27.27471 153.19099 2197 ft 150 kts 198°
2026-05-01 09:57 -27.28384 153.18574 1995 ft 147 kts 198°
2026-05-01 09:57 -27.29310 153.18051 1799 ft 149 kts 198°
2026-05-01 09:57 -27.30238 153.17526 1596 ft 150 kts 199°
2026-05-01 09:58 -27.31132 153.17013 1378 ft 137 kts 199°
2026-05-01 09:58 -27.31992 153.16528 1224 ft 137 kts 200°
2026-05-01 09:58 -27.32868 153.16040 1004 ft 144 kts 201°
2026-05-01 09:58 -27.33763 153.15527 800 ft 140 kts 203°
2026-05-01 09:59 -27.34615 153.15027 651 ft 137 kts 202°
2026-05-01 09:59 -27.35502 153.14542 493 ft 136 kts 204°
2026-05-01 09:59 -27.36356 153.14061 283 ft 139 kts 205°
2026-05-01 09:59 -27.37211 153.13573 125 ft 139 kts 205°
2026-05-01 10:00 -27.38058 153.13089 30 ft 136 kts 206°
2026-05-01 10:00 -27.38857 153.12631 19 ft 98 kts 206°
2026-05-01 10:00 -27.39248 153.12411 17 ft 31 kts 206°
2026-05-01 10:00 -27.39429 153.12309 16 ft 33 kts 208°
2026-05-01 10:01 -27.39576 153.12193 18 ft 25 kts 250°
2026-05-01 10:01 -27.39534 153.12016 18 ft 22 kts 297°
2026-05-01 10:01 -27.39429 153.11945 18 ft 19 kts 24°
2026-05-01 10:01 -27.39299 153.12019 18 ft 23 kts 28°
2026-05-01 10:02 -27.39134 153.12115 19 ft 29 kts 27°
2026-05-01 10:02 -27.38965 153.12209 22 ft 24 kts 27°
2026-05-01 10:02 -27.38826 153.12288 25 ft 20 kts 26°
2026-05-01 10:02 -27.38710 153.12352 24 ft 17 kts 27°
2026-05-01 10:03 -27.38586 153.12424 23 ft 21 kts 27°
2026-05-01 10:03 -27.38458 153.12470 22 ft 13 kts 299°
2026-05-01 10:03 -27.38435 153.12381 24 ft 12 kts 278°
2026-05-01 10:03 -27.38441 153.12280 25 ft 11 kts 242°
2026-05-01 10:04 -27.38481 153.12227 26 ft 7 kts 227°
2026-05-01 10:04 -27.38493 153.12183 28 ft 4 kts 285°
2026-05-01 10:04 -27.38482 153.12152 28 ft 4 kts 295°
2026-05-01 10:04 -27.38474 153.12135 27 ft 0 kts 298°
2026-05-01 10:05 -27.38476 153.12140 27 ft 4 kts 300°
2026-05-01 10:41 -27.38480 153.12148 28 ft 2 kts 296°
2026-05-01 10:42 -27.38486 153.12161 28 ft 2 kts 296°
2026-05-01 10:42 -27.38493 153.12177 28 ft 2 kts 296°
2026-05-01 10:42 -27.38496 153.12193 27 ft 2 kts 267°
2026-05-01 10:42 -27.38493 153.12210 27 ft 2 kts 245°
2026-05-01 10:43 -27.38485 153.12224 27 ft 2 kts 222°
2026-05-01 10:43 -27.38478 153.12238 26 ft 2 kts 267°
2026-05-01 10:43 -27.38480 153.12254 26 ft 2 kts 302°
2026-05-01 10:43 -27.38488 153.12268 26 ft 2 kts 296°
2026-05-01 10:44 -27.38495 153.12283 26 ft 2 kts 298°
2026-05-01 10:44 -27.38497 153.12288 26 ft 0 kts 298°
2026-05-01 10:47 -27.38492 153.12283 26 ft 4 kts 333°
2026-05-01 10:47 -27.38465 153.12299 25 ft 5 kts 48°
2026-05-01 10:47 -27.38438 153.12350 24 ft 10 kts 66°
2026-05-01 10:47 -27.38456 153.12445 23 ft 13 kts 111°
2026-05-01 10:48 -27.38398 153.12529 21 ft 14 kts 32°
2026-05-01 10:48 -27.38380 153.12624 19 ft 12 kts 110°
2026-05-01 10:48 -27.38393 153.12651 19 ft 0 kts 120°
2026-05-01 10:48 -27.38396 153.12656 18 ft 1 kts 119°
2026-05-01 10:49 -27.38411 153.12689 18 ft 8 kts 117°
2026-05-01 10:49 -27.38443 153.12767 18 ft 13 kts 107°
2026-05-01 10:49 -27.38499 153.12837 18 ft 12 kts 204°
2026-05-01 10:49 -27.38531 153.12822 18 ft 0 kts 204°
2026-05-01 10:50 -27.38545 153.12814 18 ft 8 kts 209°
2026-05-01 10:50 -27.38655 153.12750 18 ft 19 kts 206°
2026-05-01 10:50 -27.38769 153.12682 18 ft 21 kts 208°
2026-05-01 10:50 -27.38930 153.12546 20 ft 33 kts 225°
2026-05-01 10:51 -27.39080 153.12328 20 ft 32 kts 236°
2026-05-01 10:51 -27.39106 153.12155 20 ft 18 kts 335°
2026-05-01 10:51 -27.38980 153.12201 22 ft 21 kts 28°
2026-05-01 10:51 -27.38845 153.12279 24 ft 23 kts 27°
2026-05-01 10:52 -27.38707 153.12347 24 ft 15 kts 352°
2026-05-01 10:52 -27.38647 153.12315 25 ft 0 kts 356°
2026-05-01 10:52 -27.38644 153.12315 25 ft 3 kts 357°
2026-05-01 10:52 -27.38575 153.12346 24 ft 14 kts 32°
2026-05-01 10:53 -27.38510 153.12317 25 ft 11 kts 300°
2026-05-01 10:53 -27.38490 153.12231 26 ft 11 kts 251°
2026-05-01 10:53 -27.38489 153.12167 28 ft 8 kts 296°
2026-05-01 10:53 -27.38480 153.12148 28 ft 1 kts 297°
2026-05-01 10:54 -27.38477 153.12140 27 ft 0 kts 296°